Regional Weather Roundup
Issued by NWS

Home | Current Version | Previous Version | Graphics & Text | Print | Product List | Glossary Off
Versions: 1 2 3 4 5 6 7 8 9 10 11 12 13 14 15 16 17 18 19 20 21 22 23 24 25 26 27

000
ASUS43 KDMX 170407
RWRIA

WEATHER ROUNDUP FOR IOWA
NATIONAL WEATHER SERVICE DES MOINES IA
1100 PM CDT WED APR 16 2014

NOTE: "FAIR" INDICATES FEW OR NO CLOUDS BELOW 12,000 FEET WITH NO
SIGNIFICANT WEATHER AND/OR OBSTRUCTIONS TO VISIBILITY.

* - THESE STATIONS ARE NOT NWS STATIONS...THUS NOT UNDER NWS
QUALITY CONTROL.  THEY ALSO DO NOT REPORT WEATHER SUCH
AS PRECIPITATION OR FOG.

IAZ001>003-012>014-020>022-031>034-043>046-170500-
   NORTHWEST IOWA

CITY           SKY/WX    TMP DP  RH WIND       PRES   REMARKS
CARROLL *      CLOUDY    36  30  80 NW23G32   29.97R WCI  24
CHEROKEE *     CLOUDY    32  30  92 N20G25    30.04R WCI  20
DENISON *      CLOUDY    34  28  80 N23G36    30.00R WCI  22
LE MARS *      CLOUDY    32  28  86 N20G28    30.09R WCI  20
ORANGE CITY *  CLOUDY    30  25  80 N18G25    30.06R WCI  18
SHELDON *      CLOUDY    30  27  86 N23G32    30.04R WCI  17
SIOUX CITY     CLOUDY    34  28  79 N22G35    30.08R WCI  22
SPENCER        CLOUDY    31  28  89 NW29G38   30.00R WCI  16
STORM LAKE *   CLOUDY    32  30  93 NW23G32   30.01R WCI  19
$$

IAZ055>058-069>071-079>083-090>094-170500-
   SOUTHWEST IOWA

CITY           SKY/WX    TMP DP  RH WIND       PRES   REMARKS
ATLANTIC *     CLOUDY    37  32  81 NW21G29   30.02R WCI  27
AUDUBON *      MOCLDY    36  28  75 NW14G22   30.01R WCI  27
CLARINDA *     CLOUDY    39  32  75 NW17G28   30.06R WCI  30
COUNCIL BLFS * CLOUDY    36  32  87 NW16G26   30.05R WCI  26
CRESTON *      CLOUDY    39  34  81 W18G25    30.00R WCI  30
HARLAN  *      CLOUDY    36  30  80 NW24      30.07R WCI  24
LAMONI         CLOUDY    42  34  73 NW20G26   29.99R
RED OAK *      CLOUDY    39  32  75 NW20      30.05R WCI  30
SHENANDOAH *   CLOUDY    39  32  75 NW12G20   30.07R WCI  32
$$

IAZ047>049-059>061-072>074-084-170500-
   CENTRAL IOWA

CITY           SKY/WX    TMP DP  RH WIND       PRES   REMARKS
AMES           MOCLDY    43  39  86 W16       29.89R
ANKENY *       CLOUDY    45  39  81 W18G26    29.91R
CHARITON *     CLOUDY    46  36  66 W20G30    29.94R
DES MOINES     CLOUDY    45  37  73 W18G28    29.93R
GRINNELL*      PTCLDY    51  32  48 S18G24    29.86S
KNOXVILLE *    CLOUDY    48  36  61 W21       29.91R
MARSHALLTOWN   LGT RAIN  48  39  71 W23       29.85R
NEWTON *       CLOUDY    48  37  66 W17       29.89R
PELLA *        PTCLDY    51  37  57 W15G21    29.91R
PERRY *        CLOUDY    44  38  79 NW17G30   29.93R
$$

IAZ004>006-015-016-023>025-035-036-170500-
   NORTH CENTRAL IOWA

CITY           SKY/WX    TMP DP  RH WIND       PRES   REMARKS
ALGONA *       CLOUDY    34  32  93 NW24G32   29.92R WCI  21
CLARION *      CLOUDY    39  39 100 NW23G31   29.87R WCI  29
ESTHERVILLE    CLOUDY    30  29  96 N28G36    29.96R WCI  15
FORT DODGE *   CLOUDY    37  30  75 NW16G23   29.94R WCI  28
MASON CITY     CLOUDY    42  41  96 W15       29.81R
FOREST CITY *  DRIZZLE   37  37 100 NW14G23   29.82R WCI  29
IOWA FALLS *   CLOUDY    44  42  91 W18       29.84R
$$

IAZ007>011-017>019-026>030-037>042-050>054-066-170500-
   NORTHEAST IOWA

CITY           SKY/WX    TMP DP  RH WIND       PRES   REMARKS
CEDAR RAPIDS   CLEAR     48  28  46 S18G29    29.90S
CHARLES CITY * CLOUDY    50  32  50 S17G23    29.81R
CLINTON *      MOCLDY    46  27  46 SE22      30.04F
DECORAH *      CLOUDY    48  30  49 S21G32    29.84F
DUBUQUE        CLOUDY    46  29  51 SE25G31   29.96S
MONTICELLO *   PTCLDY    48  30  49 SE22G30   29.94S
OELWEIN *      PTCLDY   N/A N/A N/A SE22G32   29.86S
WATERLOO       PTCLDY    49  30  48 S21G32    29.83R
$$

IAZ064-065-067-068-078-170500-
   EAST CENTRAL IOWA

CITY           SKY/WX    TMP DP  RH WIND       PRES   REMARKS
DAVENPORT      PTCLDY    48  27  44 S25G33    30.01S
IOWA CITY      MOCLDY    48  30  49 SE17G26   29.96S
MT. PLEASANT * PTCLDY    50  26  38 SE20      29.98R
MUSCATINE *    PTCLDY    50  30  46 S16G23    29.98S
QUAD CITIES    MOCLDY    48  27  44 SE18G25   30.01F
$$

IAZ062-063-075>077-085>089-095>099-170500-
   SOUTHEAST IOWA

CITY           SKY/WX    TMP DP  RH WIND       PRES   REMARKS
BURLINGTON     MOCLDY    49  28  44 S16G25    30.00S
FAIRFIELD *    PTCLDY    50  28  43 SE14G21   29.94R
FORT MADISON * MOCLDY    48  28  46 SE14G25   30.00S
KEOKUK *       MOCLDY    50  28  43 SE14G22   29.99S
OSKALOOSA *      N/A     51  32  49 S20       29.90S
CENTERVILLE *    N/A     50  32  50 S14       29.93S
OTTUMWA        MOCLDY    52  30  43 S22       29.91R
WASHINGTON *   PTCLDY    48  30  49 SE15G23   29.95R
$$

ABBREVIATIONS USED IN REMARKS
   TC - TEMPERATURES IN CELSIUS
  WCI - WIND CHILL INDEX
   HX - HEAT INDEX
  VSB - VISIBILITY
$$




USA.gov is the U.S. government's official web portal to all federal, state and local government web resources and services.